Weather History for Anchorage, AK

Change the Weather History Date:

Wednesday, October 3, 2012

  Actual Average Record
Temperature  
Mean Temperature 42 °F 42 °F  
Max Temperature 46 °F 48 °F 62 °F (1952)
Min Temperature 38 °F 36 °F 9 °F (1920)
Degree Days  
Heating Degree Days 23    
Month to date heating degree days 74  
Since 1 July heating degree days 1139  
Cooling Degree Days 0    
Month to date cooling degree days 0  
Year to date cooling degree days 0  
Moisture  
Dew Point 38 °F    
Average Humidity 84    
Maximum Humidity 92    
Minimum Humidity 76    
Precipitation  
Precipitation 0.07 in 0.09 in 1.32 in (2003)
Month to date precipitation 0.07 0.27  
Year to date precipitation 16.79 12.55  
Snow  
Snow 0.00 in 0.10 in 0.80 in (1958)
Month to date snowfall 0.0 0.4  
Since 1 June snowfall 0.2 0.8  
Since 1 July snowfall 0.2 0.8  
Snow Depth 0.00 in    
Sea Level Pressure  
Sea Level Pressure 30.19 in    
Wind  
Wind Speed 2 mph (NW)    
Max Wind Speed 6 mph    
Max Gust Speed -    
Visibility 9 miles    
Events Rain    
T = Trace of Precipitation, MM = Missing Value Source: NWS Daily Summary

Daily Weather History Graph

Daily Weather History Graph

Search for Another Location

Airport:

Trip Planner

Search our weather history database for the weather conditions in past years. The results will help you decide how hot, cold, wet, or windy it might be!

Date:

Astronomy

Oct. 03, 2012 Rise Set
Actual Time 8:13 AM AKDT 7:23 PM AKDT
Civil Twilight 7:30 AM AKDT 8:05 PM AKDT
Nautical Twilight 6:39 AM AKDT 8:56 PM AKDT
Astronomical Twilight 5:47 AM AKDT 9:48 PM AKDT
Moon 8:06 PM AKDT (10/3) 1:00 PM AKDT (10/3)
Length of Visible Light 12h 35m
Length of Day
11h 09m
Waning Gibbous, 88% of the Moon is Illuminated
Oct 3
Waning Gibbous
Oct 7
Last Quarter
Oct 15
New
Oct 21
First Quarter
Oct 29
Full

Hourly Weather History & Observations

Time (AKDT) Temp. Windchill Dew Point Humidity Pressure Visibility Wind Dir Wind Speed Gust Speed Precip Events Conditions
12:53 AM 41.0 °F 39.0 °F 37.0 °F 86% 30.25 in 10.0 mi South 3.5 mph - N/A   Mostly Cloudy
1:53 AM 39.9 °F - 37.0 °F 89% 30.26 in 10.0 mi Calm Calm - N/A   Overcast
2:53 AM 39.9 °F - 37.9 °F 93% 30.26 in 10.0 mi Calm Calm - N/A   Overcast
3:53 AM 39.0 °F - 36.0 °F 89% 30.27 in 10.0 mi Calm Calm - N/A   Overcast
4:53 AM 39.9 °F - 37.0 °F 89% 30.27 in 10.0 mi Calm Calm - N/A   Overcast
5:53 AM 39.0 °F - 36.0 °F 89% 30.26 in 10.0 mi Calm Calm - N/A   Overcast
6:53 AM 39.9 °F - 36.0 °F 86% 30.26 in 10.0 mi Calm Calm - N/A   Overcast
7:53 AM 39.9 °F 37.8 °F 36.0 °F 86% 30.26 in 10.0 mi NNW 3.5 mph - N/A   Overcast
8:53 AM 39.9 °F - 36.0 °F 86% 30.26 in 10.0 mi Calm Calm - N/A   Overcast
9:53 AM 41.0 °F 38.0 °F 36.0 °F 82% 30.25 in 10.0 mi NNW 4.6 mph - N/A   Overcast
10:53 AM 41.0 °F 39.0 °F 36.0 °F 82% 30.25 in 10.0 mi NNW 3.5 mph - N/A   Overcast
11:53 AM 42.1 °F 40.2 °F 36.0 °F 79% 30.24 in 10.0 mi NNW 3.5 mph - N/A   Overcast
12:53 PM 43.0 °F 39.5 °F 36.0 °F 76% 30.24 in 10.0 mi Variable 5.8 mph - N/A   Overcast
1:53 PM 45.0 °F 41.8 °F 37.9 °F 76% 30.21 in 10.0 mi Variable 5.8 mph - N/A   Overcast
2:53 PM 45.0 °F 42.6 °F 37.9 °F 76% 30.18 in 10.0 mi WNW 4.6 mph - N/A   Overcast
3:53 PM 43.0 °F 38.8 °F 39.0 °F 86% 30.19 in 5.0 mi WNW 6.9 mph - 0.04 in Rain Rain
4:53 PM 43.0 °F 37.7 °F 39.9 °F 89% 30.17 in 10.0 mi NNW 9.2 mph - 0.08 in Rain Light Rain
5:53 PM 43.0 °F 41.3 °F 41.0 °F 93% 30.14 in 10.0 mi Variable 3.5 mph - 0.03 in Rain Light Rain
6:15 PM 42.8 °F 40.1 °F 39.2 °F 87% 30.12 in 6.0 mi NNW 4.6 mph - 0.02 in Rain Light Rain
6:53 PM 43.0 °F 41.3 °F 39.9 °F 89% 30.12 in 6.0 mi NNW 3.5 mph - 0.08 in Rain Rain
7:53 PM 43.0 °F 39.5 °F 41.0 °F 93% 30.10 in 7.0 mi NW 5.8 mph - 0.05 in Rain Light Rain
8:53 PM 43.0 °F 38.2 °F 41.0 °F 93% 30.08 in 10.0 mi NNW 8.1 mph - 0.05 in Rain Light Rain
9:53 PM 43.0 °F 37.7 °F 41.0 °F 93% 30.06 in 10.0 mi NNW 9.2 mph - 0.04 in Rain Light Rain
10:53 PM 44.1 °F 39.0 °F 41.0 °F 89% 30.06 in 10.0 mi NNW 9.2 mph - 0.01 in   Overcast
11:53 PM 43.0 °F 39.5 °F 41.0 °F 93% 30.06 in 10.0 mi West 5.8 mph - N/A   Mostly Cloudy